This is the latest recevied weather packets stored in our database for station/object WO5CID. If no packets are shown the sender has not sent any weather packets the latest 10 day(s).
| Time | Temp. | Humidity | Pressure | Rain* | Wind** | Luminosity | Snow |
|---|---|---|---|---|---|---|---|
| 1777727836 | 22.22° C | 92% | 1010.3 hPa | 0 mm | - | 72 W/m² | - |
| 1777727534 | 22.22° C | 93% | 1010.4 hPa | 0 mm | - | 74 W/m² | - |
| 1777727231 | 22.22° C | 92% | 1010.4 hPa | 0 mm | - | 80 W/m² | - |
| 1777726929 | 22.22° C | 93% | 1010.3 hPa | 0 mm | - | 75 W/m² | - |
| 1777726624 | 21.67° C | 93% | 1010 hPa | 0 mm | - | 69 W/m² | - |
| 1777726323 | 21.67° C | 93% | 1010 hPa | 0 mm | - | 85 W/m² | - |
| 1777726019 | 21.67° C | 93% | 1009.7 hPa | 0 mm | - | 93 W/m² | - |
| 1777725716 | 21.67° C | 93% | 1009.7 hPa | 0 mm | - | 95 W/m² | - |
| 1777725415 | 21.67° C | 94% | 1009.8 hPa | 0 mm | - | 112 W/m² | - |
| 1777725111 | 21.67° C | 94% | 1009.6 hPa | 0 mm | - | 108 W/m² | - |
| 1777724807 | 21.11° C | 96% | 1009.6 hPa | 0 mm | - | 111 W/m² | - |
| 1777724504 | 21.11° C | 97% | 1009.6 hPa | 0 mm | - | 100 W/m² | - |
| 1777724202 | 21.11° C | 98% | 1009.7 hPa | 0 mm | - | 108 W/m² | - |
| 1777723900 | 20.56° C | 98% | 1009.5 hPa | 0 mm | - | 104 W/m² | - |
| 1777723596 | 20.56° C | 98% | 1009.5 hPa | 0 mm | - | 80 W/m² | - |
| 1777723293 | 20.56° C | 98% | 1009.2 hPa | 0 mm | - | 68 W/m² | - |
| 1777722991 | 20.56° C | 99% | 1009.3 hPa | 0 mm | - | 80 W/m² | - |
| 1777722686 | 20.56° C | 99% | 1009.2 hPa | 0 mm | - | 82 W/m² | - |
| 1777722382 | 20° C | 99% | 1009.2 hPa | 0 mm | - | 96 W/m² | - |
| 1777722080 | 20° C | 99% | 1009 hPa | 0 mm | - | 52 W/m² | - |
| 1777721777 | 20° C | 99% | 1009.3 hPa | 0 mm | - | 39 W/m² | - |
| 1777721476 | 20° C | 99% | 1009.4 hPa | 0 mm | - | 37 W/m² | - |
| 1777721173 | 19.44° C | 98% | 1009.2 hPa | 0 mm | - | 30 W/m² | - |
| 1777720870 | 19.44° C | 98% | 1009.3 hPa | 0 mm | - | 31 W/m² | - |
| 1777720568 | 19.44° C | 98% | 1009.4 hPa | 0 mm | - | 23 W/m² | - |
* Rain latest hour (hover to see other rain measurements)
** Current wind speed in m/s (hover to see current wind gust speed)